Location: Kaltenbach
(49.2000°N, 7.7500°E)
Time: 05:40:30
(UTC+00:00)

Cosmos 2123 Rocket - Pass Details

Date: 24 January 2020
Orbit: 961 x 992 km, 82.9° (Epoch: 23 February)

Event Time Altitude Azimuth Distance (km) Brightness Sun altitude
Rises 18:13:38 0° 355° (N) 3,717 7.0 -19.7°
Reaches altitude 10° 18:16:25 10° 3° (N) 2,762 6.3 -20.1°
Enters shadow 18:22:06 37° 67° (ENE) 1,494 4.5 -21.0°
